Flag for Tunisia Weather past 2 weeks in Houmt Souk (Djerba), Tunisia

91 °F


Feels Like: 89 °F
Forecast: 77 / 90 °F
Wind: 8 mph from Northwest

Location: Djerba Mellita

Current Time: Oct 13, 2015 at 2:07:44 PM

Latest Report: Oct 13, 2015 at 1:30 PM

Visibility: 10 mi

Pressure: 29.92 "Hg

Humidity: 26%

Dew point: 52 °F

Location of Houmt Souk (Djerba)Location

Historic Weather in Houmt Souk (Djerba) — Graph


Houmt Souk (Djerba) temperature yesterday

Maximum temperature yesterday: 84 °F (at 1:00 PM)
Minimum temperature yesterday: 68 °F (at 3:30 AM)
Average temperature yesterday: 76 °F

Past Weeks' High & Low Weather Summary

High97 °F (Oct 6, 3:30 PM)94% (Oct 1, 6:00 AM)30.21 "Hg (Oct 1, 6:00 AM)
Low68 °F (Sep 29, 5:30 AM)25% (Oct 6, 3:30 PM)29.59 "Hg (Oct 9, 3:30 PM)
Average79 °F67%29.97 "Hg
* Reported Sep 28 1:00 PM — Oct 13 1:00 PM, Houmt Souk (Djerba), Weather by CustomWeather, © 2015

Note: Actual official high and low records may vary slightly from our data, if they occured in-between our weather recording intervals... More about our weather records


Houmt Souk (Djerba) weather history for previous 24 hours

Time TempWeatherWind HumidityBarometerVisibility
1:00 PM
Tue, Oct 13
90 °FSunny.3 mph31%29.95 "Hg10 mi
12:30 PM90 °FSunny.6 mph29%29.95 "Hg10 mi
11:30 AM88 °FSunny.10 mph33%29.98 "Hg10 mi
11:00 AM86 °FPassing clouds.9 mph38%29.98 "HgN/A
10:30 AM86 °FSunny.9 mph38%29.98 "Hg10 mi
10:00 AM84 °FWarm.10 mph45%29.98 "HgN/A
9:30 AM84 °FSunny.8 mph43%29.98 "Hg10 mi
9:00 AM81 °FSunny.7 mph58%29.98 "Hg10 mi
8:30 AM77 °FSunny.7 mph69%29.98 "Hg10 mi
8:00 AM75 °FPassing clouds.8 mph74%29.98 "Hg5 mi
7:30 AM70 °FPassing clouds.6 mph88%29.95 "Hg4 mi
7:00 AM68 °FPassing clouds.3 mph94%29.95 "Hg3 mi
6:30 AM68 °FPassing clouds.2 mph94%29.95 "Hg4 mi
6:00 AM68 °FPassing clouds.5 mph88%29.95 "Hg4 mi
5:30 AM68 °FPassing clouds.5 mph88%29.95 "Hg4 mi
5:00 AM68 °FPassing clouds.5 mph88%29.95 "Hg4 mi
4:30 AM70 °FPassing clouds.6 mph83%29.95 "Hg4 mi
3:30 AM70 °FPassing clouds.5 mph88%29.95 "Hg4 mi
3:00 AM70 °FPassing clouds.5 mph88%29.98 "Hg4 mi
2:30 AM70 °FPassing clouds.8 mph88%29.98 "Hg4 mi
2:00 AM70 °FPassing clouds.6 mph88%29.98 "Hg4 mi
1:30 AM70 °FPassing clouds.3 mph88%30.01 "Hg4 mi
1:00 AM70 °FPassing clouds.3 mph88%30.01 "Hg5 mi
12:30 AM72 °FPassing clouds.3 mph83%29.98 "Hg5 mi
12:00 AM72 °FPassing clouds.3 mph83%30.01 "Hg5 mi
11:30 PM
Mon, Oct 12
72 °FPassing clouds.No wind83%30.01 "Hg5 mi
11:00 PM72 °FPassing clouds.3 mph83%30.01 "Hg5 mi
10:30 PM72 °FPassing clouds.3 mph83%30.01 "Hg5 mi
10:00 PM73 °FPassing clouds.6 mph78%29.98 "HgN/A
9:30 PM75 °FPassing clouds.6 mph78%29.98 "HgN/A
9:00 PM75 °FPassing clouds.6 mph78%29.98 "HgN/A
8:30 PM75 °FPassing clouds.7 mph74%29.98 "HgN/A
8:00 PM77 °FPassing clouds.7 mph69%29.98 "HgN/A
7:30 PM77 °FPassing clouds.9 mph69%29.98 "HgN/A
7:00 PM77 °FClear.9 mph65%29.95 "Hg10 mi
6:30 PM79 °FClear.9 mph61%29.95 "Hg10 mi
6:00 PM81 °FClear.7 mph58%29.95 "Hg10 mi
5:30 PM81 °FSunny.9 mph58%29.95 "Hg10 mi
5:00 PM82 °FSunny.9 mph55%29.95 "Hg10 mi
4:30 PM82 °FSunny.8 mph55%29.95 "Hg10 mi
4:00 PM82 °FSunny.7 mph55%29.95 "Hg10 mi
3:30 PM82 °FPassing clouds.8 mph55%29.95 "HgN/A
3:00 PM84 °FPassing clouds.9 mph48%29.95 "HgN/A
2:30 PM82 °FPassing clouds.8 mph55%29.95 "HgN/A
2:00 PM84 °FPassing clouds.7 mph48%29.98 "HgN/A
Weather by CustomWeather, © 2015

See weather overviewHow to use our weather pages